Stations météo

réclame
Mon MeteoGroup
Konstanz, Allemagne (10929): Température de l'air & dewpoint: 18.02.2018 22:00:00 - 24.02.2018 22:00:00 (CET)Konstanz, Allemagne (10929): Température de l'air 5cm & Température de l'air -5cm: 18.02.2018 22:00:00 - 24.02.2018 22:00:00 (CET)Konstanz, Allemagne (10929): Température de l'air -20cm & Température de l'air -100cm: 18.02.2018 22:00:00 - 24.02.2018 22:00:00 (CET)Konstanz, Allemagne (10929): Vitesse du vent & gusts: 18.02.2018 22:00:00 - 24.02.2018 22:00:00 (CET)Konstanz, Allemagne (10929): Direction du vent: 18.02.2018 22:00:00 - 24.02.2018 22:00:00 (CET)Konstanz, Allemagne (10929): reduced air pressure: 18.02.2018 22:00:00 - 24.02.2018 22:00:00 (CET)Konstanz, Allemagne (10929): visibility: 18.02.2018 22:00:00 - 24.02.2018 22:00:00 (CET)Konstanz, Allemagne (10929): Ensoleillement: 18.02.2018 22:00:00 - 24.02.2018 22:00:00 (CET)Konstanz, Allemagne (10929): Quantités de précipitations: 18.02.2018 22:00:00 - 24.02.2018 22:00:00 (CET)
Date & Time tt [°C] td [°C] tt 5cm [°C] tt -5cm [°C] tt -20cm [°C] tt -100cm [°C] ff [km/h] ff [knt] fx [km/h] fx [knt] dd ppp [hPa] vv [km] sd [min] rr [mm]
24.02.2018 22:00:00 -2,1 -8,7 -2,3 -0,3 0,8 4,4 23 12 48 26 ENE 1018,9 21 0 0,0
24.02.2018 21:00:00 -1,5 -8,5 -1,9 -0,2 0,8 4,4 25 14 55 30 NE 1018,6 23 0 0,0
24.02.2018 20:00:00 -0,6 -10,0 -0,8 -0,1 0,8 4,4 26 14 50 27 ENE 1018,0 30 0 0,0
24.02.2018 19:00:00 -0,5 -9,9 -0,8 -0,1 0,8 4,5 24 13 58 31 ENE 1017,9 32 0 0,0
24.02.2018 18:00:00 -0,2 -10,0 -0,5 -0,1 0,8 4,5 26 14 51 27 ENE 1017,2 30 3 0,0
24.02.2018 17:00:00 0,0 -9,8 -0,5 -0,1 0,7 4,5 23 13 47 26 ENE 1016,6 25 24 0,0
24.02.2018 16:00:00 1,3 -8,0 1,8 -0,1 0,7 4,5 25 14 45 25 ENE 1015,7 19 58 0,0
24.02.2018 15:00:00 1,3 -7,1 2,0 -0,2 0,7 4,5 19 11 41 22 ENE 1015,6 17 17 0,0
24.02.2018 14:00:00 -0,4 -6,2 0,3 -0,2 0,7 4,5 24 13 46 25 ENE 1016,0 13 0 0,0
24.02.2018 13:00:00 -0,9 -5,9 -0,2 -0,2 0,7 4,5 20 11 42 23 NE 1016,5 11 0 0,0
24.02.2018 12:00:00 -1,3 -5,6 -0,7 -0,3 0,7 4,5 20 11 49 26 NE 1016,8 10 0 0,0
24.02.2018 11:00:00 -1,8 -5,8 -1,3 -0,3 0,7 4,5 19 10 44 24 ENE 1016,9 11 0 0,0
24.02.2018 10:00:00 -2,1 -5,8 -1,8 -0,4 0,7 4,5 21 11 43 23 ENE 1016,6 9 0 0,0
24.02.2018 09:00:00 -2,0 -5,5 -1,8 -0,4 0,7 4,5 19 10 38 21 NE 1016,3 8 0 0,0
24.02.2018 08:00:00 -1,7 -5,2 -1,7 -0,5 0,7 4,5 19 10 33 18 ENE 1015,9 9 0 0,0
24.02.2018 07:00:00 -1,7 -5,3 -1,7 -0,5 0,7 4,5 19 11 34 19 ENE 1015,5 10 0 0,0
24.02.2018 06:00:00 -1,5 -5,1 -1,6 -0,4 0,7 4,5 15 8 36 19 ENE 1015,6 10 0 0,0
24.02.2018 05:00:00 -1,5 -5,3 -1,6 -0,4 0,8 4,5 16 9 35 19 ENE 1015,5 10 0 0,0
24.02.2018 04:00:00 -1,3 -4,9 -1,4 -0,4 0,8 4,6 15 8 41 22 ENE 1015,5 9 0 0,0
24.02.2018 03:00:00 -1,3 -5,3 -1,4 -0,4 0,8 4,6 22 12 44 24 E 1015,6 11 0 0,0
24.02.2018 02:00:00 -1,2 -5,2 -1,3 -0,4 0,8 4,6 21 11 41 22 ENE 1015,8 11 0 0,0
24.02.2018 01:00:00 -1,1 -5,0 -1,2 -0,4 0,8 4,6 21 11 38 20 ENE 1015,8 12 0 0,0
24.02.2018 00:00:00 -1,3 -5,2 -1,4 -0,4 0,8 4,6 17 9 39 21 ENE 1015,8 11 0 0,0
23.02.2018 23:00:00 -1,4 -5,3 -1,5 -0,4 0,8 4,6 20 11 42 23 ENE 1015,6 11 0 0,0
23.02.2018 22:00:00 -1,6 -5,5 -1,7 -0,4 0,8 4,6 19 10 40 22 ENE 1016,1 10 0 0,0
23.02.2018 21:00:00 -1,8 -5,8 -1,9 -0,4 0,8 4,6 19 11 44 24 ENE 1016,1 10 0 0,0
23.02.2018 20:00:00 -1,9 -6,1 -2,0 -0,4 0,8 4,6 21 11 44 24 NE 1016,0 12 0 0,0
23.02.2018 19:00:00 -2,0 -6,1 -2,0 -0,3 0,8 4,6 19 10 40 22 NE 1015,7 11 0 0,0
23.02.2018 18:00:00 -2,1 -6,3 -2,1 -0,3 0,8 4,6 17 9 37 20 NE 1015,7 11 0 0,0
23.02.2018 17:00:00 -2,1 -6,5 -2,0 -0,2 0,8 4,6 20 11 40 21 NE 1015,3 12 0 0,0
23.02.2018 16:00:00 -2,1 -6,5 -1,9 -0,2 0,8 4,6 19 11 43 23 NE 1015,4 12 0 0,0
23.02.2018 15:00:00 -2,1 -6,5 -1,9 -0,2 0,8 4,6 18 10 41 22 NE 1015,2 12 0 0,0
23.02.2018 14:00:00 -2,0 -6,3 -1,6 -0,2 0,8 4,6 18 10 38 21 NE 1015,4 12 0 0,0
23.02.2018 13:00:00 -1,9 -6,3 -1,4 -0,2 0,8 4,7 16 9 41 22 NE 1015,2 12 0 0,0
23.02.2018 12:00:00 -2,1 -6,3 -1,4 -0,3 0,8 4,7 18 10 36 19 NE 1015,1 12 0 0,0
23.02.2018 11:00:00 -2,1 -6,3 -1,6 -0,3 0,8 4,7 15 8 36 19 NE 1015,2 13 0 0,0
23.02.2018 10:00:00 -2,5 -6,4 -2,3 -0,4 0,9 4,7 17 9 42 23 NE 1015,2 12 0 0,0
23.02.2018 09:00:00 -2,7 -6,5 -2,6 -0,5 0,9 4,7 18 10 40 22 NE 1015,0 11 0 0,0
23.02.2018 08:00:00 -2,6 -6,4 -2,6 -0,4 0,9 4,7 16 9 41 22 NE 1014,9 12 0 0,0
23.02.2018 07:00:00 -2,5 -6,4 -2,5 -0,4 0,9 4,7 18 10 36 19 NE 1014,6 13 0 0,0
23.02.2018 06:00:00 -2,3 -6,4 -2,3 -0,4 0,9 4,7 18 10 42 23 NE 1014,3 12 0 0,0
23.02.2018 05:00:00 -2,0 -6,2 -2,1 -0,4 0,9 4,7 18 10 37 20 NE 1014,4 13 0 0,0
23.02.2018 04:00:00 -1,9 -6,2 -2,0 -0,4 0,9 4,7 18 10 42 23 NE 1014,6 14 0 0,0
23.02.2018 03:00:00 -1,8 -5,8 -1,9 -0,3 0,9 4,7 16 9 40 22 NE 1014,8 12 0 0,0
23.02.2018 02:00:00 -1,8 -5,6 -1,9 -0,3 1,0 4,7 18 10 36 20 NE 1015,1 11 0 0,0
23.02.2018 01:00:00 -1,8 -5,6 -1,9 -0,3 1,0 4,7 19 10 40 22 NE 1015,2 11 0 0,0
23.02.2018 00:00:00 -1,8 -5,8 -1,9 -0,3 1,0 4,7 17 9 39 21 NE 1015,4 11 0 0,0
22.02.2018 23:00:00 -1,7 -5,9 -1,8 -0,3 1,0 4,7 19 10 43 23 NE 1015,4 12 0 0,0
22.02.2018 22:00:00 -1,6 -6,1 -1,8 -0,3 1,0 4,7 17 9 44 24 NE 1015,2 13 0 0,0
22.02.2018 21:00:00 -1,5 -6,3 -1,6 -0,2 1,0 4,7 22 12 56 30 ENE 1015,3 13 0 0,0
22.02.2018 20:00:00 -1,5 -6,5 -1,6 -0,2 1,1 4,7 23 12 48 26 ENE 1015,3 14 0 0,0
22.02.2018 19:00:00 -1,4 -6,3 -1,5 -0,2 1,1 4,8 25 13 50 27 ENE 1015,3 14 0 0,0
22.02.2018 18:00:00 -1,2 -6,3 -1,4 -0,1 1,1 4,8 22 12 48 26 ENE 1014,9 14 0 0,0
22.02.2018 17:00:00 -1,4 -6,4 -1,4 -0,1 1,1 4,8 19 11 48 26 NE 1014,6 13 0 0,0
22.02.2018 16:00:00 -1,5 -6,0 -1,3 -0,1 1,1 4,8 21 11 52 28 NE 1014,5 11 0 0,0
22.02.2018 15:00:00 -1,7 -6,3 -1,5 -0,1 1,1 4,8 26 14 51 27 ENE 1014,3 10 0 0,0
22.02.2018 14:00:00 -1,7 -6,4 -1,4 -0,1 1,1 4,8 19 10 43 23 NE 1014,4 11 0 0,0
22.02.2018 13:00:00 -1,9 -6,2 -1,6 -0,1 1,1 4,8 21 11 50 27 NE 1014,7 10 0 0,0
22.02.2018 12:00:00 -2,1 -6,6 -1,6 -0,1 1,2 4,8 20 11 49 26 NE 1014,8 12 0 0,0
22.02.2018 11:00:00 -2,3 -6,6 -1,8 -0,2 1,2 4,8 20 11 51 28 NE 1014,7 10 0 0,0
22.02.2018 10:00:00 -2,7 -6,4 -2,5 -0,2 1,2 4,8 22 12 48 26 NE 1014,9 8 0 0,0
22.02.2018 09:00:00 -2,7 -6,4 -2,6 -0,2 1,2 4,8 20 11 49 27 NE 1015,0 10 0 0,0
22.02.2018 08:00:00 -3,1 -6,7 -3,1 -0,2 1,3 4,8 19 10 49 27 NE 1015,1 10 0 0,0
22.02.2018 07:00:00 -3,2 -7,0 -3,2 -0,2 1,3 4,8 24 13 56 31 NE 1014,9 10 0 0,0
22.02.2018 06:00:00 -3,2 -7,1 -3,4 -0,1 1,4 4,8 22 12 49 26 NE 1014,9 11 0 0,0
22.02.2018 05:00:00 -3,1 -6,8 -3,7 0,0 1,4 4,8 17 9 46 25 NE 1015,0 11 0 0,0
22.02.2018 04:00:00 -2,8 -6,3 -3,6 0,1 1,5 4,8 16 9 48 26 NE 1015,6 10 0 0,0
22.02.2018 03:00:00 -2,5 -5,9 -3,3 0,2 1,5 4,8 18 10 48 26 NE 1015,8 9 0 0,0
22.02.2018 02:00:00 -2,1 -6,0 -2,8 0,3 1,6 4,8 21 12 42 23 ENE 1016,0 9 0 0,0
22.02.2018 01:00:00 -2,0 -6,0 -2,8 0,4 1,6 4,8 16 9 41 22 NE 1016,6 9 0 0,0
22.02.2018 00:00:00 -1,2 -5,8 -1,7 0,4 1,6 4,8 14 8 33 18 NE 1017,0 10 0 0,0
21.02.2018 23:00:00 -0,6 -5,5 -0,9 0,5 1,7 4,8 15 8 34 19 NE 1017,2 11 0 0,0
21.02.2018 22:00:00 -0,6 -5,2 -1,1 0,5 1,7 4,8 15 8 36 20 NE 1017,7 9 0 0,0
21.02.2018 21:00:00 -0,8 -4,5 -1,3 0,6 1,8 4,8 11 6 41 22 NE 1018,3 7 0 0,0
21.02.2018 20:00:00 -0,7 -4,4 -0,8 0,6 1,8 4,8 16 9 36 19 NE 1018,3 7 0 0,0
21.02.2018 19:00:00 -0,8 -5,0 -0,8 0,7 1,9 4,8 14 8 39 21 NE 1018,8 8 0 0,0
21.02.2018 18:00:00 -0,9 -5,0 -1,4 0,8 1,9 4,9 14 7 40 21 NE 1018,4 9 3 0,0
21.02.2018 17:00:00 -0,5 -4,9 -0,8 1,4 1,9 4,9 17 9 39 21 NE 1018,3 8 5 0,0
21.02.2018 16:00:00 -0,2 -4,9 0,2 1,9 1,8 4,9 18 10 36 20 NE 1018,3 9 1 0,0
21.02.2018 15:00:00 0,2 -4,5 0,8 2,1 1,6 4,9 14 8 36 19 NE 1018,2 9 3 0,0
21.02.2018 14:00:00 0,6 -4,5 1,5 1,7 1,5 4,9 13 7 39 21 NE 1018,4 12 22 0,0
21.02.2018 13:00:00 0,7 -4,5 1,3 0,6 1,5 4,9 17 9 43 23 NE 1018,4 15 13 0,0
21.02.2018 12:00:00 0,3 -4,2 0,7 0,4 1,5 4,9 18 10 37 20 ENE 1018,5 14 4 0,0
21.02.2018 11:00:00 0,0 -4,3 0,7 0,4 1,5 4,9 16 9 34 18 ENE 1018,7 12 0 0,0
21.02.2018 10:00:00 -0,7 -4,1 -0,5 0,4 1,5 4,9 18 10 35 19 ENE 1019,0 11 0 0,0
21.02.2018 09:00:00 -1,2 -4,0 -1,0 0,4 1,6 4,9 14 7 35 19 NE 1019,0 8 0 0,0
21.02.2018 08:00:00 -1,4 -4,5 -1,3 0,4 1,6 4,9 9 5 26 14 ENE 1019,3 10 0 0,0
21.02.2018 07:00:00 -1,7 -4,6 -1,8 0,4 1,6 4,9 14 8 31 17 NE 1019,2 8 0 0,0
21.02.2018 06:00:00 -1,6 -5,3 -1,7 0,4 1,6 4,9 11 6 24 13 NNE 1018,9 13 0 0,0
21.02.2018 05:00:00 -2,2 -5,4 -2,0 0,4 1,7 4,9 8 5 18 10 NNE 1019,1 11 0 0,0
21.02.2018 04:00:00 -2,6 -5,5 -2,5 0,5 1,7 4,9 11 6 32 17 ENE 1019,1 9 0 0,0
21.02.2018 03:00:00 -2,0 -5,5 -2,3 0,5 1,7 4,9 14 7 24 13 NE 1018,6 9 0 0,0
21.02.2018 02:00:00 -1,4 -5,1 -1,4 0,5 1,7 4,9 9 5 19 10 NE 1018,4 11 0 0,0
21.02.2018 01:00:00 -1,4 -5,3 -1,4 0,5 1,8 4,9 8 5 18 10 NE 1018,1 11 0 0,0
21.02.2018 00:00:00 -1,3 -5,1 -1,3 0,6 1,8 4,9 9 5 18 10 NE 1018,0 8 0 0,0
20.02.2018 23:00:00 -1,2 -4,8 -1,1 0,6 1,9 4,9 8 5 16 9 NE 1018,0 9 0 0,0
20.02.2018 22:00:00 -1,1 -4,9 -1,1 0,6 1,9 4,9 7 4 17 9 NNE 1018,1 10 0 0,0
20.02.2018 21:00:00 -0,8 -5,4 -0,9 0,6 2,0 4,9 10 5 21 11 NNE 1018,0 17 0 0,0
20.02.2018 20:00:00 -0,6 -5,9 -0,7 0,7 2,0 4,9 9 5 19 10 NE 1017,5 24 0 0,0
20.02.2018 19:00:00 -0,5 -5,5 -0,6 0,8 2,1 4,9 8 4 16 9 NE 1017,1 21 0 0,0
20.02.2018 18:00:00 -0,4 -5,8 -0,5 1,0 2,2 4,9 9 5 21 12 NE 1016,9 21 0 0,0
20.02.2018 17:00:00 -0,3 -5,0 -0,3 1,3 2,2 4,9 9 5 18 10 NE 1016,6 16 0 0,0
20.02.2018 16:00:00 0,0 -4,8 0,0 1,6 2,2 4,9 8 5 18 10 NNE 1016,3 15 0 0,0
20.02.2018 15:00:00 0,1 -5,2 0,3 1,9 2,2 4,9 7 4 16 9 NNE 1016,1 17 0 0,0
20.02.2018 14:00:00 0,4 -4,5 0,7 2,1 2,1 4,9 6 4 14 7 NNE 1015,9 18 0 0,0
20.02.2018 13:00:00 0,5 -3,7 0,9 2,3 1,9 4,9 8 4 14 7 ENE 1015,9 10 0 0,0
20.02.2018 12:00:00 0,4 -3,8 1,4 1,7 1,8 4,9 7 4 12 7 NNE 1016,1 9 0 0,0
20.02.2018 11:00:00 0,0 -4,0 0,3 0,9 1,8 4,9 6 3 15 8 N 1016,3 9 0 0,0
20.02.2018 10:00:00 -0,2 -3,9 0,0 0,7 1,8 4,9 6 3 14 7 N 1016,4 10 0 0,0
20.02.2018 09:00:00 -0,5 -4,8 -0,5 0,6 1,9 4,9 6 4 13 7 N 1016,2 14 0 0,0
20.02.2018 08:00:00 -0,5 -4,7 -0,6 0,6 1,9 4,9 6 3 13 7 N 1016,2 15 0 0,0
20.02.2018 07:00:00 -0,4 -4,4 -0,5 0,6 2,0 4,9 6 3 16 8 NNE 1016,0 15 0 0,0
20.02.2018 06:00:00 -0,2 -4,5 -0,4 0,7 2,0 4,9 8 4 13 7 N 1016,0 20 0 0,0
20.02.2018 05:00:00 -0,2 -3,7 -0,5 0,7 2,1 4,9 4 2 11 6 NNE 1016,0 11 0 0,0
20.02.2018 04:00:00 -0,1 -3,6 -0,5 0,8 2,2 4,9 6 3 10 5 NE 1015,9 12 0 0,0
20.02.2018 03:00:00 -0,1 -3,2 -0,3 0,9 2,2 4,9 4 2 9 5 N 1016,1 10 0 0,0
20.02.2018 02:00:00 0,0 -3,1 -0,2 1,0 2,3 4,9 6 3 11 6 N 1016,4 9 0 0,0
20.02.2018 01:00:00 0,2 -2,8 0,1 1,1 2,3 4,9 6 3 12 7 N 1016,7 8 0 0,0
20.02.2018 00:00:00 0,4 -2,0 0,1 1,2 2,4 4,9 2 1 8 4 N 1016,8 9 0 0,0
19.02.2018 23:00:00 0,6 -2,4 0,3 1,3 2,5 4,9 3 1 5 3 NW 1017,1 10 0 0,0
19.02.2018 22:00:00 0,7 -2,6 0,4 1,4 2,5 4,9 2 1 9 5 N 1017,4 11 0 0,0
19.02.2018 21:00:00 0,8 -2,8 0,5 1,6 2,6 4,9 4 2 5 3 NW 1017,7 15 0 0,0
19.02.2018 20:00:00 0,9 -3,1 0,5 1,8 2,7 4,9 3 2 6 3 NNW 1017,8 16 0 0,0
19.02.2018 19:00:00 1,0 -3,4 0,6 2,0 2,7 4,9 3 2 6 4 NNW 1018,1 19 0 0,0
19.02.2018 18:00:00 1,2 -3,9 0,9 2,3 2,7 4,9 4 2 5 3 NNW 1018,0 21 0 0,0
19.02.2018 17:00:00 1,4 -3,3 1,3 2,7 2,7 4,9 0 0 7 4 N 1018,0 18 0 0,0
19.02.2018 16:00:00 1,6 -3,5 1,9 3,0 2,6 4,9 4 2 8 5 NNW 1018,5 21 0 0,0
19.02.2018 15:00:00 1,5 -2,5 2,4 2,9 2,4 4,9 3 1 6 3 NW 1018,7 13 0 0,0
19.02.2018 14:00:00 1,1 -2,6 1,7 2,6 2,3 4,9 5 3 8 4 NW 1019,3 13 0 0,0
19.02.2018 13:00:00 0,7 -2,8 1,6 2,4 2,2 4,9 5 3 8 5 W 1019,9 12 0 0,0
19.02.2018 12:00:00 1,1 -2,5 1,6 2,2 2,1 4,9 4 2 6 4 W 1020,1 13 0 0,0
19.02.2018 11:00:00 1,1 -2,5 1,7 1,8 2,0 4,9 3 1 8 5 NNE 1020,4 13 0 0,0
19.02.2018 10:00:00 0,7 -2,5 1,2 1,3 2,0 4,9 5 3 14 8 N 1020,5 13 0 0,0
19.02.2018 09:00:00 0,6 -2,6 0,5 0,9 2,0 4,9 5 3 11 6 NNE 1020,8 13 0 0,0
19.02.2018 08:00:00 0,1 -2,7 -0,1 0,7 2,1 4,9 6 4 15 8 ENE 1021,1 12 0 0,0
19.02.2018 07:00:00 -0,1 -3,0 -0,3 0,8 2,1 4,9 5 3 12 6 NE 1021,3 12 0 0,0
19.02.2018 06:00:00 -0,1 -2,8 -0,2 0,9 2,2 4,9 2 1 8 4 NNE 1021,6 13 0 0,0
19.02.2018 05:00:00 0,0 -2,8 -0,3 0,9 2,2 4,9 4 2 15 8 NE 1022,0 14 0 0,0
19.02.2018 04:00:00 -0,1 -3,1 -0,2 1,0 2,3 4,9 8 4 25 13 NNE 1022,4 14 0 0,0
19.02.2018 03:00:00 0,1 -2,7 0,0 1,1 2,4 4,9 10 6 20 11 NNE 1022,6 13 0 0,0
19.02.2018 02:00:00 0,3 -2,5 0,1 1,2 2,4 4,9 8 4 14 8 N 1022,8 10 0 0,0
19.02.2018 01:00:00 0,5 -2,3 0,4 1,3 2,5 4,9 8 4 15 8 N 1023,0 9 0 0,0
19.02.2018 00:00:00 0,3 -2,1 0,2 1,4 2,6 4,9 5 3 13 7 NW 1023,6 6 0 0,0
18.02.2018 23:00:00 0,3 -2,3 0,2 1,4 2,7 4,9 8 4 16 9 NNW 1024,1 6 0 0,0
18.02.2018 22:00:00 0,4 -2,5 0,2 1,6 2,8 4,9 8 4 16 8 N 1024,6 8 0 0,0

tt = Température de l'air
td = dewpoint
tt 5cm = Température de l'air 5cm
tt -5cm = Température de l'air -5cm
tt -20cm = Température de l'air -20cm
tt -100cm = Température de l'air -100cm
ff = Vitesse du vent
fx = gusts
dd = Direction du vent
ppp = reduced air pressure
vv = visibility
sd = Ensoleillement
rr = Quantités de précipitations

stations d'obs. à proximité